• In Belarus
  • List of Countries
  • For 7 days
  • Water Temperature
  • Satellite Maps
  • Weather Map
  • Weather Widgets
  • user-avatar
    Login

    Hourly Weather Gjirokaster

    Today, 19 October, Thursday

    Time Temperature Precipitation Wind Pressure Humidity
    00:00 +11°C° 0 mm 1 mps 654 mmHg 54%
    01:00 +11°C° 0 mm 1 mps 654 mmHg 53%
    02:00 +11°C° 0 mm 1 mps 654 mmHg 53%
    03:00 +10°C° 0 mm 1 mps 654 mmHg 54%
    04:00 +10°C° 0 mm 1 mps 654 mmHg 54%
    05:00 +10°C° 0 mm 1 mps 654 mmHg 53%
    06:00 +11°C° 0 mm 1 mps 654 mmHg 53%
    07:00 +11°C° 0 mm 1 mps 654 mmHg 53%
    08:00 +13°C° 0 mm 2 mps 655 mmHg 48%
    09:00 +15°C° 0 mm 2 mps 655 mmHg 43%
    10:00 +17°C° 0 mm 2 mps 656 mmHg 39%
    11:00 +18°C° 0 mm 2 mps 655 mmHg 39%
    12:00 +18°C° 0 mm 2 mps 655 mmHg 39%
    13:00 +18°C° 0 mm 2 mps 655 mmHg 39%
    14:00 +18°C° 0 mm 2 mps 655 mmHg 43%
    15:00 +17°C° 0 mm 2 mps 655 mmHg 48%
    16:00 +16°C° 0 mm 2 mps 654 mmHg 53%
    17:00 +14°C° 0 mm 2 mps 654 mmHg 61%
    18:00 +13°C° 0 mm 1 mps 654 mmHg 69%
    19:00 +11°C° 0 mm 1 mps 654 mmHg 77%
    20:00 +11°C° 0 mm 1 mps 654 mmHg 79%
    21:00 +10°C° 0 mm 1 mps 654 mmHg 82%
    22:00 +10°C° 0 mm 1 mps 654 mmHg 84%
    23:00 +10°C° 0 mm 1 mps 654 mmHg 85%

    Tomorrow, 20 October, Friday

    Time Temperature Precipitation Wind Pressure Humidity
    00:00 +9°C° 0 mm 1 mps 654 mmHg 86%
    01:00 +8°C° 0 mm 2 mps 654 mmHg 87%
    02:00 +8°C° 0 mm 2 mps 653 mmHg 87%
    03:00 +8°C° 0 mm 2 mps 653 mmHg 86%
    04:00 +7°C° 0 mm 2 mps 653 mmHg 86%
    05:00 +8°C° 0 mm 2 mps 653 mmHg 83%
    06:00 +8°C° 0 mm 2 mps 654 mmHg 79%
    07:00 +9°C° 0 mm 2 mps 654 mmHg 76%
    08:00 +12°C° 0 mm 2 mps 654 mmHg 67%
    09:00 +14°C° 0 mm 1 mps 655 mmHg 58%
    10:00 +16°C° 0 mm 1 mps 656 mmHg 49%
    11:00 +16°C° 0 mm 2 mps 656 mmHg 46%
    12:00 +17°C° 0 mm 2 mps 656 mmHg 44%
    13:00 +17°C° 0 mm 2 mps 655 mmHg 41%
    14:00 +17°C° 0 mm 2 mps 655 mmHg 46%
    15:00 +16°C° 0 mm 2 mps 655 mmHg 51%
    16:00 +15°C° 0 mm 2 mps 655 mmHg 56%
    17:00 +14°C° 0 mm 1 mps 655 mmHg 64%
    18:00 +12°C° 0 mm 1 mps 655 mmHg 72%
    19:00 +11°C° 0 mm 1 mps 654 mmHg 80%
    20:00 +10°C° 0 mm 1 mps 655 mmHg 82%
    21:00 +10°C° 0 mm 1 mps 655 mmHg 83%
    22:00 +10°C° 0 mm 1 mps 655 mmHg 84%
    23:00 +9°C° 0 mm 1 mps 655 mmHg 83%

    Day after tomorrow, 21 October, Saturday

    Time Temperature Precipitation Wind Pressure Humidity
    00:00 +9°C° 0 mm 1 mps 654 mmHg 83%
    01:00 +9°C° 0 mm 1 mps 654 mmHg 82%
    02:00 +9°C° 0 mm 1 mps 654 mmHg 81%
    03:00 +9°C° 0 mm 1 mps 654 mmHg 81%
    04:00 +8°C° 0 mm 1 mps 654 mmHg 80%
    05:00 +9°C° 0 mm 1 mps 654 mmHg 78%
    06:00 +8°C° 0 mm 2 mps 654 mmHg 75%
    07:00 +9°C° 0 mm 2 mps 654 mmHg 72%
    08:00 +12°C° 0 mm 2 mps 655 mmHg 63%
    09:00 +14°C° 0 mm 2 mps 655 mmHg 55%
    10:00 +17°C° 0 mm 2 mps 656 mmHg 46%
    11:00 +17°C° 0 mm 2 mps 656 mmHg 44%
    12:00 +18°C° 0 mm 3 mps 656 mmHg 42%
    13:00 +18°C° 0 mm 3 mps 655 mmHg 40%
    14:00 +17°C° 0 mm 3 mps 655 mmHg 44%
    15:00 +17°C° 0 mm 3 mps 655 mmHg 47%
    16:00 +16°C° 0 mm 3 mps 654 mmHg 51%
    17:00 +13°C° 0 mm 3 mps 654 mmHg 57%
    18:00 +12°C° 0 mm 3 mps 654 mmHg 63%
    19:00 +10°C° 0 mm 3 mps 654 mmHg 70%
    20:00 +10°C° 0 mm 2 mps 654 mmHg 70%
    21:00 +9°C° 0 mm 2 mps 654 mmHg 71%
    22:00 +9°C° 0 mm 2 mps 654 mmHg 71%
    23:00 +9°C° 0 mm 2 mps 654 mmHg 71%

    22 October, Sunday

    Time Temperature Precipitation Wind Pressure Humidity
    00:00 +9°C° 0 mm 2 mps 653 mmHg 71%
    01:00 +8°C° 0 mm 2 mps 653 mmHg 71%
    02:00 +8°C° 0 mm 2 mps 653 mmHg 71%
    03:00 +8°C° 0 mm 2 mps 653 mmHg 71%
    04:00 +8°C° 0 mm 2 mps 653 mmHg 71%
    05:00 +8°C° 0 mm 2 mps 653 mmHg 69%
    06:00 +8°C° 0 mm 2 mps 653 mmHg 67%
    07:00 +9°C° 0 mm 2 mps 653 mmHg 65%
    08:00 +12°C° 0 mm 2 mps 653 mmHg 56%
    09:00 +14°C° 0 mm 2 mps 654 mmHg 47%
    10:00 +18°C° 0 mm 1 mps 654 mmHg 38%
    11:00 +17°C° 0 mm 2 mps 654 mmHg 35%
    12:00 +18°C° 0 mm 2 mps 654 mmHg 33%
    13:00 +18°C° 0 mm 3 mps 654 mmHg 30%
    14:00 +17°C° 0 mm 3 mps 653 mmHg 35%
    15:00 +16°C° 0 mm 2 mps 653 mmHg 39%
    16:00 +15°C° 0 mm 2 mps 652 mmHg 44%
    17:00 +14°C° 0 mm 2 mps 652 mmHg 50%
    18:00 +12°C° 0 mm 1 mps 651 mmHg 57%
    19:00 +10°C° 0 mm 1 mps 651 mmHg 63%
    20:00 +10°C° 0 mm 1 mps 651 mmHg 66%
    21:00 +10°C° 0 mm 1 mps 651 mmHg 68%
    22:00 +9°C° 0 mm 1 mps 651 mmHg 70%
    23:00 +8°C° 0 mm 2 mps 650 mmHg 73%

    23 October, Monday

    Time Temperature Precipitation Wind Pressure Humidity
    00:00 +8°C° 0 mm 2 mps 650 mmHg 76%
    01:00 +7°C° 0 mm 2 mps 649 mmHg 79%
    02:00 +7°C° 0 mm 3 mps 649 mmHg 81%
    03:00 +7°C° 0 mm 3 mps 648 mmHg 83%
    04:00 +5°C° 0 mm 3 mps 648 mmHg 85%
    05:00 +7°C° 0.2 mm 3 mps 648 mmHg 82%
    06:00 +6°C° 0.2 mm 4 mps 647 mmHg 79%
    07:00 +6°C° 0.2 mm 4 mps 647 mmHg 76%
    08:00 +8°C° 1.9 mm 3 mps 647 mmHg 76%
    09:00 +8°C° 1.9 mm 3 mps 647 mmHg 77%
    10:00 +8°C° 1.9 mm 3 mps 646 mmHg 77%
    11:00 +8°C° 4.3 mm 3 mps 646 mmHg 81%
    12:00 +7°C° 4.3 mm 3 mps 645 mmHg 86%
    13:00 +7°C° 4.3 mm 3 mps 644 mmHg 91%
    14:00 +5°C° 2.6 mm 3 mps 644 mmHg 90%
    15:00 +5°C° 2.6 mm 3 mps 644 mmHg 89%
    16:00 +6°C° 2.6 mm 2 mps 643 mmHg 87%
    17:00 +5°C° 0.5 mm 2 mps 643 mmHg 87%
    18:00 +5°C° 0.5 mm 2 mps 643 mmHg 87%
    19:00 +6°C° 0.5 mm 1 mps 643 mmHg 87%
    20:00 +6°C° 0.2 mm 1 mps 643 mmHg 86%
    21:00 +6°C° 0.2 mm 1 mps 643 mmHg 85%
    22:00 +6°C° 0.2 mm 1 mps 643 mmHg 84%
    23:00 +5°C° 0.1 mm 2 mps 643 mmHg 84%

    24 October, Tuesday

    Time Temperature Precipitation Wind Pressure Humidity
    00:00 +5°C° 0.1 mm 2 mps 642 mmHg 84%
    01:00 +5°C° 0.1 mm 2 mps 642 mmHg 84%
    02:00 +5°C° 0.1 mm 2 mps 642 mmHg 84%
    03:00 +5°C° 0.1 mm 2 mps 642 mmHg 84%
    04:00 +4°C° 0.1 mm 2 mps 642 mmHg 84%
    05:00 +5°C° 0 mm 2 mps 642 mmHg 84%
    06:00 +5°C° 0 mm 2 mps 642 mmHg 83%
    07:00 +5°C° 0 mm 2 mps 642 mmHg 83%
    08:00 +6°C° 0 mm 2 mps 643 mmHg 77%
    09:00 +7°C° 0 mm 2 mps 643 mmHg 72%
    10:00 +9°C° 0 mm 2 mps 644 mmHg 66%
    11:00 +9°C° 0 mm 2 mps 644 mmHg 63%
    12:00 +10°C° 0 mm 2 mps 644 mmHg 60%
    13:00 +12°C° 0 mm 2 mps 644 mmHg 57%
    14:00 +10°C° 0.1 mm 2 mps 645 mmHg 61%
    15:00 +10°C° 0.1 mm 2 mps 645 mmHg 64%
    16:00 +10°C° 0.1 mm 2 mps 645 mmHg 68%
    17:00 +9°C° 0.5 mm 3 mps 645 mmHg 72%
    18:00 +8°C° 0.5 mm 3 mps 645 mmHg 76%
    19:00 +7°C° 0.5 mm 3 mps 645 mmHg 79%
    20:00 +7°C° 0.6 mm 3 mps 645 mmHg 81%
    21:00 +7°C° 0.6 mm 3 mps 645 mmHg 82%
    22:00 +5°C° 0.6 mm 3 mps 644 mmHg 83%
    23:00 +5°C° 0.5 mm 3 mps 645 mmHg 83%
    Show more